Weather in Lienz

Austria     46°49′46″N   12°45′59″E
temp.,
°C
wind,
m/s
gust,
m/s
humid.,
%
clouds,
%
prec.,
mm/h
press.,
hPa
HPBL,
m
14 april, wed
wed1423:00−11nw3393100 0.0 103153
02:00−13nw33945 0.0 103242
05:00−14nw22945 0.0 103336
08:00−9nnw23843 0.0 1029125
11:00−2nne126427 0.0 10251240
14:000ene1265100 0.1 10221545
17:00−1e117395 0.4 1021855
20:00−6nne1194100 0.9 102515
15 april, thu
thu1523:00−7nnw229493 0.3 102744
02:00−9nw129485 0.4 102834
05:00−10nw119595 0.0 102832
08:00−6n128799 0.1 1025270
11:00−2ene1171100 0.1 10231091
14:00−1ese1279100 1.2 1021893
17:00−2ese1289100 2.5 1021416
20:00−4nne119695 5.7 102282
16 april, fri
fri1623:00−8nnw119752 1.0 102625
02:00−12nw229618 1.1 102924
05:00−13nw229514 0.0 102927
08:00−7nw11843 0.0 102597
11:00−1ese117937 0.0 1021829
14:00+1se227779 0.2 10191239
17:00+1ese2276100 0.5 1018905
20:00−5ne1198100 0.6 102210
17 april, sat
sat1723:00−8nw2198100 0.0 102518
02:00−8nw2196100 0.0 102425
05:00−8nw2195100 0.0 102325
08:00−4n1287100 0.0 1019139
11:00+1nne2274100 0.0 1016769
14:00+3ne2268100 0.0 10141189
17:00+2nne2374100 0.0 1013905
20:00−2n2293100 0.1 101634
18 april, sun
sun1823:00−3nnw2392100 0.0 101968
02:00−3nnw2391100 0.0 101877
05:00−3nnw2392100 0.0 1017141
08:00−2n2391100 0.3 1017292
11:00+1n2281100 0.2 1016790
14:00+2e1282100 0.8 1013706
17:00+2nne2280100 0.6 1015768
20:00−1n2194100 0.9 101832